SCP
0 0 0 0 0 0 0 0 0 0 0 0 0 0 0 0 0 0 0 0 0 0 1 1 1 1 1 1 1 1 1 1 1 1 1 1 1 1 1 1 1 1 1 1 1 1 1 1 1
0 0 0 0 0 0 0 0 0 0 0 0 0 0 0 0 0 0 0 0 0 0 1 1 1 1 1 1 1 1 1 1 1 1 1 1 1 1 1 1 1 1 1 1 0 0 0 1 1
0 0 0 0 0 0 0 0 0 0 0 0 0 0 0 0 0 0 0 0 0 1 1 1 1 1 1 1 1 1 1 1 1 1 1 1 1 1 1 1 1 0 0 0 0 0 0 0 0
0 0 0 0 0 0 0 0 0 0 0 0 0 0 0 0 0 0 0 0 0 1 1 1 1 1 1 1 1 1 1 1 1 1 1 1 1 1 1 1 0 0 0 0 0 0 0 0 0
0 0 0 0 0 0 0 0 0 0 0 0 0 0 0 0 0 0 0 0 1 1 1 1 1 1 1 1 1 1 1 1 1 1 1 1 1 1 1 1 0 0 0 0 0 0 0 0 0
0 0 0 0 0 0 0 0 0 0 0 0 0 0 0 0 0 0 0 1 1 1 1 1 1 1 1 1 1 1 1 1 1 1 1 1 1 1 1 1 0 0 0 0 0 0 0 0 0
0 0 0 0 0 0 0 0 0 0 0 0 0 0 0 0 0 0 1 1 1 1 1 1 1 1 1 1 1 1 1 1 1 1 1 1 1 1 1 1 0 0 0 0 0 0 0 0 0
0 0 0 0 0 0 0 0 0 0 0 0 0 0 0 0 0 0 1 1 1 1 1 1 1 1 1 1 1 1 1 1 1 1 1 1 1 1 0 0 0 0 0 0 0 0 0 0 0
0 0 0 0 0 0 0 0 0 0 0 0 0 0 0 0 0 1 1 1 1 1 1 1 1 1 1 1 1 1 1 1 1 1 1 1 1 0 0 0 0 0 0 0 0 0 0 0 0
0 0 0 0 0 0 0 0 0 0 0 0 0 0 0 1 1 1 1 1 1 1 1 1 1 1 1 1 1 0 0 0 1 1 1 1 1 0 0 0 0 0 0 0 0 0 0 0 0
0 0 0 0 0 0 0 0 0 0 0 0 0 0 1 1 1 1 1 2 1 1 1 1 1 1 1 1 1 0 0 0 0 1 1 1 1 0 0 0 0 0 0 0 0 0 0 0 0
0 0 0 0 0 0 0 0 0 0 0 0 0 0 1 1 1 1 1 2 2 1 1 1 1 1 1 1 1 1 0 0 0 0 1 1 1 0 0 0 0 0 0 0 0 0 0 0 0
0 0 0 0 0 0 0 0 0 0 0 0 0 0 1 1 1 1 1 1 1 1 1 1 1 1 1 1 1 1 0 0 0 0 0 1 1 0 0 0 0 0 0 0 0 0 0 0 0
0 0 0 0 0 0 0 0 0 0 0 0 0 0 0 1 1 1 1 1 1 2 2 2 2 2 1 1 1 1 0 0 0 0 0 1 1 1 0 0 0 0 0 0 0 0 0 0 0
0 0 0 0 0 0 0 0 0 0 0 0 0 0 0 0 1 1 1 1 1 2 2 2 2 2 2 1 1 1 0 0 0 0 0 1 1 1 0 0 0 0 0 0 0 0 0 0 0
0 0 0 0 0 0 0 0 0 0 0 0 0 0 0 0 0 1 1 1 1 2 2 2 2 2 2 2 1 1 0 0 0 0 0 0 1 1 0 0 0 0 0 0 0 0 0 0 0
0 0 0 0 0 0 0 0 0 0 0 0 0 0 0 0 0 1 1 1 1 1 2 2 2 2 2 2 1 1 0 0 0 0 0 0 1 1 0 0 0 0 0 0 0 0 0 0 0
0 0 0 0 0 0 0 0 0 0 0 0 0 0 0 0 0 1 1 1 1 1 2 2 2 2 2 2 1 0 0 0 0 0 0 0 0 1 1 0 0 0 0 0 0 0 0 0 0
0 0 0 0 0 0 0 0 0 0 0 0 0 0 0 0 0 0 1 1 2 2 2 2 2 2 2 2 1 0 0 0 0 0 0 0 0 0 0 0 0 0 0 0 0 0 0 0 0
0 0 0 0 0 0 0 0 0 0 0 0 0 0 0 0 0 0 0 1 2 2 2 2 3 3 2 2 1 0 0 0 0 0 0 0 0 0 0 0 0 0 0 0 0 0 0 0 0
0 0 0 0 0 0 0 0 0 0 0 0 0 0 0 0 0 0 0 1 2 3 3 3 3 3 2 2 1 0 0 0 0 0 0 0 0 0 0 0 0 0 0 0 0 0 0 0 0
0 0 0 0 0 0 0 0 0 0 0 0 0 0 0 0 0 0 0 1 1 2 3 3 3 3 2 2 1 0 0 0 0 0 0 0 0 0 0 0 0 0 0 0 0 0 0 0 0
0 0 0 0 0 0 0 0 0 0 0 0 0 0 0 0 0 0 0 1 1 2 3 3 3 3 2 2 1 1 0 0 0 0 0 0 0 0 0 0 0 0 0 0 0 0 0 0 0
0 0 0 0 0 0 0 0 0 0 0 0 0 0 0 0 0 0 0 0 1 1 2 2 2 2 2 2 1 1 0 0 0 0 0 0 0 0 0 0 0 0 0 0 0 0 0 0 0
0 0 0 0 0 0 0 0 0 0 0 0 0 0 0 0 0 0 0 0 0 1 1 1 1 1 1 1 1 1 0 0 0 0 0 0 0 0 0 0 0 0 0 0 0 0 0 0 0
0 0 0 0 0 0 0 0 0 0 0 0 0 0 0 0 0 0 0 0 0 0 0 0 1 1 1 1 1 1 0 0 0 0 0 0 0 0 0 0 0 0 0 0 0 0 0 0 0
0 0 0 0 0 0 0 0 0 0 0 0 0 0 0 0 0 0 0 0 0 0 0 0 0 1 1 1 1 1 0 0 0 0 0 0 0 0 0 0 0 0 0 0 0 0 0 0 0
0 0 0 0 0 0 0 0 0 0 0 0 0 0 0 0 0 0 0 0 0 0 0 0 0 0 1 0 0 0 0 0 0 0 0 0 0 0 0 0 1 1 0 0 0 0 0 0 0
0 0 0 0 0 0 0 0 0 0 0 0 0 0 0 0 0 0 0 0 0 0 0 0 0 0 0 0 0 0 0 0 0 0 0 0 0 0 0 0 0 1 1 0 0 0 0 0 0
0 0 0 0 0 0 0 0 0 0 0 0 0 0 0 0 0 0 0 0 0 0 0 0 0 0 0 0 0 0 0 0 0 0 0 0 0 0 0 0 0 1 1 0 0 0 0 0 0
Wind_Speed
8 5 2 4 5 3 2 3 2 1 1 1 2 5 7 4 3 4 2 4 6 5 4 5 8 9 9 9 8 8 8 8 8 8 8 8 8 7 8 7 8 8 8 8 8 9 9 9 9
3 3 4 5 4 2 3 3 2 1 3 2 3 5 6 4 3 5 2 4 7 6 4 5 8 9 9 8 8 8 8 7 7 7 7 7 7 7 7 8 8 8 8 8 8 8 8 8 8
3 1 4 4 3 5 4 2 4 1 1 2 3 4 4 3 2 2 2 6 7 6 4 5 8 9 8 8 8 8 7 7 7 7 7 7 7 7 7 7 7 7 7 7 8 8 8 8 8
2 4 4 3 3 3 4 3 4 3 3 3 4 4 3 2 2 3 5 8 8 6 4 5 8 8 8 8 8 8 7 7 7 7 7 7 6 7 7 7 7 7 7 7 7 7 7 7 7
3 4 3 0 3 2 2 2 2 2 1 1 3 4 2 2 4 6 7 8 8 6 4 5 8 8 8 8 7 7 7 7 7 7 7 6 6 6 7 7 7 6 6 6 6 7 7 6 6
4 4 3 3 3 2 2 1 2 3 2 1 3 4 2 2 4 5 6 6 6 6 5 5 7 7 7 7 7 7 7 7 7 7 7 6 6 6 6 7 6 6 6 6 6 6 7 6 6
4 4 3 4 3 2 2 0 2 3 2 1 2 4 2 1 2 5 6 6 6 6 5 4 4 5 6 6 6 6 6 7 7 7 7 6 6 6 6 6 6 5 5 6 5 6 6 6 6
4 4 2 2 3 3 1 1 1 2 2 1 2 5 4 3 4 6 6 6 5 5 5 4 3 3 3 3 5 6 6 6 7 7 6 6 6 6 6 5 5 5 5 5 5 5 5 6 6
3 3 2 3 3 2 0 2 2 2 3 3 3 2 3 6 6 6 5 4 4 4 3 3 3 3 2 3 3 4 5 5 5 5 6 6 3 3 3 4 5 5 5 5 5 5 6 6 6
4 3 4 1 2 2 1 1 1 2 2 2 3 4 5 6 6 6 5 4 3 2 2 2 3 3 2 2 2 2 2 2 3 3 3 2 2 3 3 4 5 5 5 5 5 6 6 5 3
3 4 3 0 1 2 1 0 0 3 2 3 4 4 4 5 4 4 3 3 3 3 2 2 2 2 2 2 2 1 1 2 2 2 2 2 3 2 2 2 2 3 4 3 4 4 3 2 2
2 0 1 0 1 2 1 0 1 1 4 3 4 6 6 5 4 4 3 2 2 2 2 2 2 2 2 2 2 2 2 1 1 2 2 2 2 2 2 1 1 1 1 2 2 2 2 2 2
1 1 1 1 1 1 1 0 0 2 2 3 4 5 5 5 3 3 3 2 2 2 2 2 2 2 2 2 2 2 2 2 1 1 2 2 2 1 1 1 1 1 1 1 1 1 2 2 2
1 0 2 2 1 0 1 2 1 4 2 3 4 3 3 4 4 2 1 1 2 2 2 1 2 2 3 2 2 2 2 2 2 1 1 2 2 2 1 1 1 1 1 1 1 1 1 1 1
1 2 4 3 2 1 1 3 4 5 3 3 2 2 2 2 2 2 3 2 3 2 2 2 2 2 3 2 2 2 2 2 2 1 1 2 2 2 2 1 1 1 1 1 1 1 1 1 2
1 1 2 4 1 1 3 6 4 3 4 3 2 2 2 2 2 2 1 1 2 2 3 2 2 2 2 2 2 1 2 2 1 1 1 1 2 2 2 1 1 1 1 1 1 1 1 1 1
2 1 4 4 1 1 3 7 4 2 3 4 3 3 2 1 1 2 1 1 2 2 3 3 2 2 2 2 2 2 2 2 1 1 1 1 1 2 2 1 1 1 1 1 1 1 1 1 2
3 3 3 4 3 1 4 7 6 3 4 5 4 3 3 3 4 2 1 1 1 2 2 3 2 2 2 2 1 1 2 1 1 1 1 1 1 2 2 1 1 1 1 1 1 1 1 1 1
2 2 3 4 3 2 5 8 7 5 4 4 4 4 4 5 3 1 1 1 1 1 2 2 2 2 1 1 1 1 1 1 0 1 1 1 1 1 2 1 1 1 1 1 1 1 1 2 2
1 1 3 4 2 2 5 8 7 6 6 6 6 6 5 4 1 1 1 1 1 1 2 2 2 2 1 1 1 1 1 1 1 0 0 0 1 1 2 2 1 1 1 1 1 1 0 1 1
3 4 3 3 4 3 3 6 5 3 3 3 4 4 5 5 4 3 2 1 1 1 2 2 2 2 2 1 1 1 1 1 1 1 0 0 0 1 1 2 2 2 2 1 1 1 1 1 1
4 3 3 2 1 3 0 5 6 4 3 4 4 4 4 4 4 3 3 2 2 2 2 2 2 2 2 2 2 2 2 1 1 1 1 1 0 0 1 2 2 2 2 1 1 1 1 1 1
3 1 2 2 2 2 2 3 8 2 4 7 6 5 4 4 4 4 4 4 2 2 2 2 2 2 2 2 2 2 2 1 1 0 0 0 1 1 0 1 2 2 2 2 1 1 1 1 1
1 2 2 3 2 3 5 5 7 4 7 5 5 4 3 3 3 3 2 2 1 1 1 1 2 2 2 2 2 3 3 2 1 1 1 1 1 1 1 0 1 1 1 2 2 2 1 1 1
2 4 3 4 2 7 3 4 8 5 4 4 4 4 3 3 2 3 3 2 2 1 1 1 1 2 2 2 2 3 3 3 3 2 2 1 1 1 2 1 1 1 1 1 1 1 2 1 1
3 5 5 5 5 5 2 7 6 3 2 0 1 2 3 2 2 2 3 3 2 2 1 1 1 1 1 2 2 2 2 2 2 2 2 2 2 2 2 2 2 2 2 1 1 1 1 1 2
4 3 3 3 0 3 6 6 6 1 2 2 1 1 1 2 2 2 1 2 2 2 1 2 1 1 0 1 1 2 2 2 2 2 2 2 2 2 2 2 2 2 2 2 2 2 2 2 2
2 4 3 4 3 5 6 5 5 3 3 2 2 2 3 2 1 1 0 1 0 0 0 0 1 1 1 1 1 1 1 1 2 1 2 2 2 2 2 2 2 2 2 1 2 2 2 2 2
3 2 3 3 3 4 4 7 4 3 3 4 4 4 3 2 2 2 1 0 0 1 1 0 0 1 1 1 1 0 0 0 1 1 1 1 1 2 2 2 2 2 2 1 2 2 2 2 2
3 5 6 5 5 4 4 8 2 2 2 3 3 2 2 3 2 2 2 1 1 0 1 0 1 1 1 1 1 1 1 1 1 1 1 1 1 2 2 2 2 2 1 1 2 3 2 3 3
Wind_Direction
329 332 47 56 60 61 231 246 208 108 68 50 61 85 96 87 107 135 140 118 119 129 134 128 116 112 107 103 100 96 92 90 89 88 87 85 85 81 77 75 70 67 67 68 69 66 63 61 60
330 347 54 62 98 155 249 242 190 226 171 135 56 71 81 75 72 107 108 119 120 123 121 115 111 111 108 104 100 98 96 93 92 90 87 86 85 81 75 73 70 68 67 67 69 69 65 63 60
329 53 83 84 139 183 203 204 165 157 78 97 65 47 84 106 112 127 129 124 112 111 112 111 106 107 106 102 99 96 95 94 93 90 85 82 82 78 76 72 68 67 67 65 64 65 64 61 58
52 51 61 90 206 220 196 186 153 127 41 52 108 76 66 46 126 126 117 114 111 104 105 116 109 107 105 103 100 96 94 93 91 88 86 82 79 77 75 73 70 67 67 66 63 62 60 55 51
63 81 84 145 233 248 230 204 151 121 116 68 106 110 81 22 80 101 107 110 113 107 97 109 106 106 106 102 99 98 95 91 87 84 84 83 79 77 75 73 69 66 65 66 66 62 54 47 42
65 80 117 203 229 239 251 229 143 116 121 61 92 113 116 74 90 101 102 104 110 113 103 100 92 93 98 100 98 94 92 90 86 81 78 80 79 80 77 74 68 63 63 63 62 57 47 40 38
112 116 170 190 204 239 244 340 124 131 121 137 131 122 138 105 101 104 99 103 102 104 105 100 96 89 85 89 92 88 84 82 80 74 69 68 72 75 72 70 67 65 64 62 60 53 45 39 36
126 115 171 203 192 223 274 47 66 110 136 36 89 138 172 173 128 102 93 93 95 96 104 105 98 93 92 89 84 81 81 80 75 70 65 65 67 69 67 63 62 63 62 58 55 50 43 35 33
88 89 203 211 187 202 161 95 4 40 84 48 45 110 140 130 115 95 84 79 85 88 101 113 111 102 100 99 86 79 79 78 75 70 70 68 62 61 61 53 55 58 57 53 50 44 42 38 32
89 160 218 223 176 161 137 138 168 66 56 58 50 53 94 111 114 112 115 122 123 128 121 114 121 122 117 101 87 84 73 75 76 74 80 71 67 55 53 48 49 49 47 49 49 45 41 33 17
131 180 209 283 109 122 104 58 142 136 225 196 165 145 121 110 114 122 135 147 159 158 148 128 127 131 130 113 106 88 73 66 74 80 78 74 71 64 55 51 40 42 43 38 30 27 23 18 9
123 224 199 271 31 72 107 112 23 179 217 157 140 144 140 140 147 157 163 167 153 146 161 153 141 134 131 121 119 114 100 81 66 69 78 86 84 75 64 55 47 41 37 44 30 17 8 7 1
163 242 356 14 34 74 72 210 177 256 209 116 116 120 144 155 164 176 177 164 150 165 176 164 148 143 139 128 127 120 120 111 85 78 80 93 100 100 87 66 55 42 31 34 27 17 5 2 353
173 278 295 289 292 11 136 282 193 244 174 126 126 142 162 167 174 159 150 165 169 177 179 173 153 146 140 137 136 136 127 119 104 93 99 106 108 108 104 88 65 41 31 22 14 4 9 353 352
73 356 321 286 231 216 114 298 232 216 146 137 156 168 159 175 156 166 189 191 188 175 160 156 148 133 136 140 137 129 134 123 113 110 99 111 108 114 119 110 83 31 23 32 21 6 18 7 357
60 48 296 287 201 202 144 255 252 191 152 177 194 193 177 180 177 190 190 186 180 158 149 155 132 131 142 140 138 129 129 125 117 112 106 121 123 126 128 116 97 54 54 39 31 20 23 4 350
41 227 249 282 238 179 190 249 260 209 172 202 215 209 202 213 230 227 204 182 170 163 152 148 144 147 153 143 133 120 120 121 123 120 114 132 139 138 134 129 112 104 92 55 34 20 18 360 341
209 224 246 250 257 209 234 253 265 234 197 215 222 218 214 226 240 236 208 187 160 151 150 149 143 142 148 132 116 108 92 96 108 131 139 138 151 144 135 125 113 111 93 52 34 18 5 354 316
183 205 249 259 271 249 243 260 266 252 219 218 221 222 224 231 245 212 165 153 132 126 139 167 159 159 156 150 155 158 164 163 156 142 116 121 141 151 143 128 133 120 129 142 75 33 21 4 353
231 261 274 291 308 267 266 271 266 245 220 211 212 220 223 231 239 225 169 138 159 169 173 173 182 178 186 191 186 180 180 184 149 80 53 87 124 147 149 144 152 156 148 128 98 62 57 341 1
241 219 233 265 321 315 306 292 267 267 232 229 219 215 212 201 199 201 191 187 172 182 195 187 191 181 178 159 113 91 68 48 32 355 311 308 165 173 172 165 165 173 174 188 199 168 147 230 302
245 227 223 244 303 286 204 286 277 252 257 241 232 216 212 203 189 188 188 190 195 205 193 182 171 168 169 160 149 147 172 208 238 228 249 317 328 199 183 172 176 181 184 195 208 204 213 181 253
226 261 241 246 203 286 255 234 279 259 249 241 228 219 212 195 180 186 193 194 195 191 181 181 165 161 157 161 169 177 193 208 221 193 148 319 324 317 221 186 188 189 191 197 199 212 215 211 222
157 36 30 37 78 265 225 201 270 235 232 237 221 214 204 193 185 186 184 163 162 144 124 144 161 161 156 162 173 188 193 189 179 194 212 247 285 306 311 267 212 208 210 209 207 204 213 232 247
85 89 28 352 338 254 232 218 252 259 252 221 206 201 190 189 182 179 172 170 173 166 161 148 160 179 170 172 190 203 203 197 200 205 214 223 239 270 269 277 250 238 233 228 223 206 211 221 241
194 154 166 204 234 274 266 232 251 264 304 353 147 152 157 177 188 187 183 181 184 186 180 168 170 187 195 196 211 212 210 206 213 215 215 218 226 238 250 250 239 230 225 215 225 231 235 225 236
161 194 180 145 310 276 261 270 293 322 4 29 61 108 177 199 192 193 185 179 184 196 203 196 191 184 212 225 233 227 222 212 218 221 215 220 237 245 244 239 234 243 237 220 209 229 240 238 242
172 151 118 145 181 256 276 260 250 251 257 283 261 229 228 218 175 168 164 126 152 213 283 174 191 208 233 221 239 259 246 229 215 210 224 231 236 233 232 239 229 231 233 233 229 243 243 245 252
156 165 160 161 184 194 260 265 224 220 215 226 246 244 225 207 202 199 188 160 69 34 43 40 317 348 351 338 321 336 319 269 231 221 236 238 240 234 230 232 232 230 231 232 232 243 239 239 255
187 190 164 175 230 216 238 267 272 272 233 211 232 242 230 202 198 189 177 151 100 38 351 303 275 291 301 329 1 3 360 6 5 315 281 278 270 255 240 226 231 231 229 238 240 243 247 242 246